Starlink 3908

operational
NORAD ID: 52491 Int'l Des: 2022-049 Owner: SPXS Country: US Constellation: starlink
LEOCIRCULAR

About Starlink 3908

Description loading...

Live Position

Loading 3D Globe...

Upcoming Passes

Altitude History

Altitude vs Time

uPlot chart will show altitude changes over time

Two-Line Element Set

1 52491U 22049AS 26061.08511927 .00000120 00000-0 25648-4 0 9998
2 52491 53.2165 83.2587 0001326 89.9143 270.2001 15.08834254211246
Epoch: Mar 2, 2026 • Age: 27 hours

Current Status

Altitude 543.1 km
Velocity 7.59 km/s
Sub-Earth Point -11.81°S, 65.46°E
Launch Date May 6, 2022
Age 3.8 years
Type internet

Technical Details

Classification Payload
Mass 297.00 kg
Dry Mass 220.00 kg
Total Mass 297.00 kg
Length 0.20 m
Diameter 2.80 m
Span 9.00 m
Shape Box + pan
Manufacturer SPXS
Bus Type Starlink
Phase Status In Orbit
Owner/State SPXS/US

Large Constellations

Loading constellations...